| time (UTC) | temp C | wind direction | speed KPH | gust KPH | rain 1hr cm | rain 24hr cm | rain mn cm | humidity % | barometer mb |
| 20260903211236 | 27 | 187 | 19.3 | 33.8 | 0.00 | 0.00 | 0.00 | 13 | 1015.3 |
| 20260903210217 | 27 | 188 | 22.5 | 38.6 | 0.00 | 0.00 | 0.00 | 14 | 1015.7 |
| 20260903205216 | 27 | 189 | 22.5 | 41.8 | 0.00 | 0.00 | 0.00 | 14 | 1015.8 |
| 20260903204216 | 26 | 209 | 12.9 | 27.4 | 0.00 | 0.00 | 0.00 | 14 | 1015.9 |
| 20260903203217 | 26 | 179 | 24.1 | 35.4 | 0.00 | 0.00 | 0.00 | 14 | 1016.0 |
| 20260903202216 | 26 | 223 | 25.7 | 41.8 | 0.00 | 0.00 | 0.00 | 15 | 1016.1 |
| 20260903201236 | 26 | 214 | 14.5 | 25.7 | 0.00 | 0.00 | 0.00 | 15 | 1016.5 |
| 20260903200217 | 26 | 173 | 19.3 | 38.6 | 0.00 | 0.00 | 0.00 | 14 | 1016.7 |
| 20260903195217 | 26 | 220 | 9.7 | 19.3 | 0.00 | 0.00 | 0.00 | 15 | 1016.8 |
| 20260903194216 | 26 | 214 | 20.9 | 37.0 | 0.00 | 0.00 | 0.00 | 14 | 1016.9 |
| 20260903193216 | 25 | 189 | 16.1 | 24.1 | 0.00 | 0.00 | 0.00 | 14 | 1017.1 |
| 20260903192216 | 25 | 180 | 12.9 | 19.3 | 0.00 | 0.00 | 0.00 | 15 | 1017.2 |
| 20260903191256 | 25 | 170 | 14.5 | 22.5 | 0.00 | 0.00 | 0.00 | 15 | 1017.4 |
| 20260903190216 | 25 | 195 | 14.5 | 29.0 | 0.00 | 0.00 | 0.00 | 15 | 1017.5 |
| 20260903185216 | 25 | 205 | 8.0 | 20.9 | 0.00 | 0.00 | 0.00 | 14 | 1017.5 |
| 20260903184236 | 25 | 192 | 9.7 | 19.3 | 0.00 | 0.00 | 0.00 | 16 | 1017.7 |
| 20260903183216 | 25 | 186 | 11.3 | 20.9 | 0.00 | 0.00 | 0.00 | 15 | 1017.8 |
| 20260903182216 | 25 | 183 | 14.5 | 27.4 | 0.00 | 0.00 | 0.00 | 16 | 1017.9 |
| 20260903181216 | 24 | 170 | 17.7 | 24.1 | 0.00 | 0.00 | 0.00 | 16 | 1018.2 |
| 20260903180216 | 24 | 182 | 16.1 | 24.1 | 0.00 | 0.00 | 0.00 | 17 | 1018.5 |
| 20260903175216 | 23 | 160 | 11.3 | 19.3 | 0.00 | 0.00 | 0.00 | 17 | 1018.3 |
| 20260903174216 | 24 | 177 | 6.4 | 17.7 | 0.00 | 0.00 | 0.00 | 16 | 1018.6 |
| 20260903173216 | 24 | 191 | 12.9 | 19.3 | 0.00 | 0.00 | 0.00 | 17 | 1018.6 |
| 20260903172216 | 23 | 163 | 9.7 | 16.1 | 0.00 | 0.00 | 0.00 | 17 | 1018.7 |
| 20260903171216 | 23 | 165 | 11.3 | 19.3 | 0.00 | 0.00 | 0.00 | 17 | 1018.7 |
| 20260903170216 | 23 | 181 | 14.5 | 37.0 | 0.00 | 0.00 | 0.00 | 17 | 1018.8 |
| 20260903165216 | 23 | 186 | 16.1 | 30.6 | 0.00 | 0.00 | 0.00 | 18 | 1018.8 |
| 20260903164216 | 23 | 199 | 16.1 | 24.1 | 0.00 | 0.00 | 0.00 | 18 | 1018.6 |
| 20260903163236 | 22 | 193 | 14.5 | 24.1 | 0.00 | 0.00 | 0.00 | 18 | 1018.6 |
| 20260903162237 | 22 | 177 | 12.9 | 22.5 | 0.00 | 0.00 | 0.00 | 18 | 1018.7 |
| 20260903161216 | 22 | 168 | 9.7 | 19.3 | 0.00 | 0.00 | 0.00 | 20 | 1018.4 |
| 20260903160236 | 21 | 155 | 4.8 | 9.7 | 0.00 | 0.00 | 0.00 | 35 | 1018.9 |
| 20260903155216 | 21 | 93 | 9.7 | 14.5 | 0.00 | 0.00 | 0.00 | 35 | 1018.8 |
| 20260903154215 | 21 | 91 | 3.2 | 9.7 | 0.00 | 0.00 | 0.00 | 30 | 1018.9 |
| 20260903153216 | 21 | 97 | 1.6 | 3.2 | 0.00 | 0.00 | 0.00 | 28 | 1018.8 |
| 20260903152216 | 21 | 127 | 3.2 | 6.4 | 0.00 | 0.00 | 0.00 | 32 | 1019.1 |
| 20260903151216 | 21 | 125 | 1.6 | 3.2 | 0.00 | 0.00 | 0.00 | 24 | 1019.0 |
| 20260903150236 | 20 | 75 | 1.6 | 3.2 | 0.00 | 0.00 | 0.00 | 20 | 1018.6 |
| 20260903145216 | 19 | 12 | 3.2 | 8.0 | 0.00 | 0.00 | 0.00 | 20 | 1018.5 |
| 20260903144256 | 19 | 5 | 3.2 | 4.8 | 0.00 | 0.00 | 0.00 | 22 | 1018.6 |
| 20260903143236 | 18 | 5 | 4.8 | 6.4 | 0.00 | 0.00 | 0.00 | 24 | 1018.5 |
| 20260903142215 | 18 | 263 | 3.2 | 6.4 | 0.00 | 0.00 | 0.00 | 23 | 1018.1 |
| 20260903141216 | 17 | 248 | 6.4 | 12.9 | 0.00 | 0.00 | 0.00 | 23 | 1018.2 |
| 20260903140216 | 17 | 248 | 6.4 | 14.5 | 0.00 | 0.00 | 0.00 | 23 | 1017.8 |
| 20260903135236 | 17 | 261 | 6.4 | 9.7 | 0.00 | 0.00 | 0.00 | 24 | 1017.9 |
| 20260903134216 | 16 | 259 | 8.0 | 11.3 | 0.00 | 0.00 | 0.00 | 24 | 1017.7 |
| 20260903133215 | 16 | 249 | 11.3 | 16.1 | 0.00 | 0.00 | 0.00 | 24 | 1017.6 |
| 20260903132215 | 16 | 257 | 14.5 | 20.9 | 0.00 | 0.00 | 0.00 | 24 | 1017.5 |
| 20260903131215 | 16 | 258 | 8.0 | 14.5 | 0.00 | 0.00 | 0.00 | 24 | 1017.3 |
| 20260903130215 | 16 | 249 | 12.9 | 16.1 | 0.00 | 0.00 | 0.00 | 24 | 1017.3 |
| 20260903125216 | 16 | 244 | 9.7 | 12.9 | 0.00 | 0.00 | 0.00 | 24 | 1017.1 |
| 20260903124215 | 16 | 233 | 8.0 | 16.1 | 0.00 | 0.00 | 0.00 | 24 | 1017.1 |
| 20260903123215 | 16 | 245 | 9.7 | 16.1 | 0.00 | 0.00 | 0.00 | 25 | 1017.2 |
| 20260903122215 | 16 | 251 | 8.0 | 12.9 | 0.00 | 0.00 | 0.00 | 24 | 1017.0 |
| 20260903121215 | 16 | 237 | 8.0 | 14.5 | 0.00 | 0.00 | 0.00 | 24 | 1017.3 |
| 20260903120215 | 16 | 234 | 9.7 | 16.1 | 0.00 | 0.00 | 0.00 | 24 | 1017.3 |
| 20260903115235 | 16 | 267 | 6.4 | 11.3 | 0.00 | 0.00 | 0.00 | 26 | 1017.1 |
| 20260903114218 | 15 | 267 | 3.2 | 4.8 | 0.00 | 0.00 | 0.00 | 26 | 1017.1 |
| 20260903113235 | 15 | 267 | 3.2 | 4.8 | 0.00 | 0.00 | 0.00 | 26 | 1017.1 |
| 20260903112215 | 15 | 267 | 4.8 | 6.4 | 0.00 | 0.00 | 0.00 | 26 | 1017.0 |
| 20260903111215 | 16 | 267 | 4.8 | 6.4 | 0.00 | 0.00 | 0.00 | 24 | 1017.0 |
| 20260903110215 | 17 | 267 | 0.0 | 1.6 | 0.00 | 0.00 | 0.00 | 23 | 1017.3 |
| 20260903105235 | 17 | 267 | 3.2 | 4.8 | 0.00 | 0.00 | 0.00 | 22 | 1017.3 |
| 20260903104215 | 17 | 267 | 6.4 | 9.7 | 0.00 | 0.00 | 0.00 | 22 | 1017.4 |
| 20260903103215 | 17 | 267 | 6.4 | 9.7 | 0.00 | 0.00 | 0.00 | 22 | 1017.4 |
| 20260903102215 | 17 | 267 | 4.8 | 6.4 | 0.00 | 0.00 | 0.00 | 22 | 1017.4 |
| 20260903101235 | 17 | 260 | 4.8 | 8.0 | 0.00 | 0.00 | 0.00 | 22 | 1017.4 |
| 20260903100215 | 17 | 244 | 6.4 | 8.0 | 0.00 | 0.00 | 0.00 | 22 | 1017.3 |
| 20260903095215 | 17 | 252 | 6.4 | 9.7 | 0.00 | 0.00 | 0.00 | 22 | 1017.3 |
| 20260903094235 | 17 | 254 | 9.7 | 14.5 | 0.00 | 0.00 | 0.00 | 22 | 1017.2 |
| 20260903093215 | 17 | 260 | 6.4 | 9.7 | 0.00 | 0.00 | 0.00 | 23 | 1017.2 |
| 20260903092215 | 17 | 250 | 3.2 | 4.8 | 0.00 | 0.00 | 0.00 | 23 | 1017.1 |
| 20260903091215 | 17 | 250 | 3.2 | 3.2 | 0.00 | 0.00 | 0.00 | 23 | 1017.0 |
| 20260903090215 | 16 | 350 | 3.2 | 4.8 | 0.00 | 0.00 | 0.00 | 24 | 1016.7 |
| 20260903085215 | 16 | 350 | 1.6 | 3.2 | 0.00 | 0.00 | 0.00 | 24 | 1016.6 |
| 20260903084217 | 16 | 350 | 1.6 | 3.2 | 0.00 | 0.00 | 0.00 | 24 | 1016.6 |
| 20260903083215 | 16 | 350 | 1.6 | 4.8 | 0.00 | 0.00 | 0.00 | 24 | 1016.4 |
| 20260903082257 | 17 | 328 | 3.2 | 8.0 | 0.00 | 0.00 | 0.00 | 23 | 1016.7 |
| 20260903081216 | 17 | 252 | 3.2 | 4.8 | 0.00 | 0.00 | 0.00 | 23 | 1016.4 |
| 20260903080237 | 17 | 252 | 1.6 | 4.8 | 0.00 | 0.00 | 0.00 | 23 | 1016.4 |
| 20260903075217 | 17 | 252 | 1.6 | 4.8 | 0.00 | 0.00 | 0.00 | 23 | 1016.4 |
| 20260903074217 | 18 | 252 | 0.0 | 4.8 | 0.00 | 0.00 | 0.00 | 23 | 1016.4 |
| 20260903073217 | 18 | 0.0 | 1.6 | 0.00 | 0.00 | 0.00 | 22 | 1016.4 | |
| 20260903072217 | 18 | 252 | 3.2 | 4.8 | 0.00 | 0.00 | 0.00 | 22 | 1016.5 |
| 20260903071217 | 18 | 252 | 1.6 | 4.8 | 0.00 | 0.00 | 0.00 | 21 | 1016.4 |
| 20260903070217 | 19 | 258 | 4.8 | 6.4 | 0.00 | 0.00 | 0.00 | 21 | 1016.3 |
| 20260903065217 | 19 | 213 | 3.2 | 8.0 | 0.00 | 0.00 | 0.00 | 21 | 1016.5 |
| 20260903064217 | 19 | 195 | 3.2 | 6.4 | 0.00 | 0.00 | 0.00 | 23 | 1016.4 |
| 20260903063217 | 20 | 198 | 1.6 | 3.2 | 0.00 | 0.00 | 0.00 | 22 | 1015.9 |
| 20260903062217 | 20 | 249 | 0.0 | 1.6 | 0.00 | 0.00 | 0.00 | 22 | 1016.1 |
| 20260903061216 | 20 | 249 | 1.6 | 3.2 | 0.00 | 0.00 | 0.00 | 21 | 1015.9 |
| 20260903060217 | 20 | 249 | 0.0 | 1.6 | 0.00 | 0.00 | 0.00 | 21 | 1015.7 |
| 20260903055254 | 20 | 249 | 1.6 | 3.2 | 0.00 | 0.00 | 0.00 | 20 | 1015.7 |
| 20260903054216 | 21 | 249 | 1.6 | 4.8 | 0.00 | 0.00 | 0.00 | 20 | 1015.7 |
| 20260903053216 | 21 | 249 | 3.2 | 8.0 | 0.00 | 0.00 | 0.00 | 18 | 1015.6 |
| 20260903052236 | 21 | 249 | 1.6 | 4.8 | 0.00 | 0.00 | 0.00 | 19 | 1015.6 |
| 20260903051236 | 21 | 256 | 1.6 | 3.2 | 0.00 | 0.00 | 0.00 | 19 | 1016.0 |
| 20260903050216 | 21 | 256 | 3.2 | 8.0 | 0.00 | 0.00 | 0.00 | 18 | 1016.0 |
| 20260903045216 | 21 | 242 | 1.6 | 4.8 | 0.00 | 0.00 | 0.00 | 18 | 1016.1 |
| 20260903044215 | 22 | 265 | 4.8 | 6.4 | 0.00 | 0.00 | 0.00 | 18 | 1016.2 |
| 20260903043216 | 22 | 258 | 6.4 | 11.3 | 0.00 | 0.00 | 0.00 | 17 | 1016.0 |
| 20260903042215 | 22 | 234 | 6.4 | 16.1 | 0.00 | 0.00 | 0.00 | 16 | 1016.0 |
| 20260903041215 | 22 | 258 | 11.3 | 17.7 | 0.00 | 0.00 | 0.00 | 16 | 1015.8 |
| 20260903040215 | 22 | 242 | 9.7 | 16.1 | 0.00 | 0.00 | 0.00 | 16 | 1015.5 |
| 20260903035215 | 22 | 249 | 4.8 | 9.7 | 0.00 | 0.00 | 0.00 | 17 | 1015.4 |
| 20260903034216 | 22 | 200 | 3.2 | 8.0 | 0.00 | 0.00 | 0.00 | 18 | 1015.4 |
| 20260903033215 | 23 | 259 | 1.6 | 4.8 | 0.00 | 0.00 | 0.00 | 17 | 1015.0 |
| 20260903032216 | 23 | 262 | 3.2 | 6.4 | 0.00 | 0.00 | 0.00 | 17 | 1015.1 |
| 20260903031215 | 23 | 230 | 12.9 | 16.1 | 0.00 | 0.00 | 0.00 | 15 | 1014.8 |
| 20260903030236 | 23 | 251 | 4.8 | 8.0 | 0.00 | 0.00 | 0.00 | 17 | 1015.2 |
| 20260903025215 | 23 | 236 | 6.4 | 9.7 | 0.00 | 0.00 | 0.00 | 16 | 1015.2 |
| 20260903024215 | 23 | 227 | 1.6 | 3.2 | 0.00 | 0.00 | 0.00 | 16 | 1015.4 |
| 20260903023215 | 23 | 178 | 4.8 | 9.7 | 0.00 | 0.00 | 0.00 | 16 | 1015.0 |
| 20260903022235 | 24 | 234 | 3.2 | 6.4 | 0.00 | 0.00 | 0.00 | 15 | 1015.0 |
| 20260903021215 | 24 | 191 | 1.6 | 4.8 | 0.00 | 0.00 | 0.00 | 15 | 1015.1 |
| 20260903020215 | 25 | 190 | 4.8 | 11.3 | 0.00 | 0.00 | 0.00 | 15 | 1014.8 |
| 20260903015215 | 25 | 184 | 4.8 | 9.7 | 0.00 | 0.00 | 0.00 | 15 | 1015.4 |
| 20260903014255 | 25 | 191 | 8.0 | 12.9 | 0.00 | 0.00 | 0.00 | 15 | 1015.4 |
| 20260903013215 | 25 | 192 | 9.7 | 20.9 | 0.00 | 0.00 | 0.00 | 15 | 1015.3 |
| 20260903012215 | 26 | 200 | 14.5 | 20.9 | 0.00 | 0.00 | 0.00 | 14 | 1015.8 |
| 20260903011215 | 26 | 212 | 12.9 | 20.9 | 0.00 | 0.00 | 0.00 | 15 | 1015.8 |
| 20260903010215 | 26 | 204 | 14.5 | 24.1 | 0.00 | 0.00 | 0.00 | 14 | 1015.5 |
| 20260903005235 | 26 | 196 | 16.1 | 22.5 | 0.00 | 0.00 | 0.00 | 14 | 1015.6 |
| 20260903004215 | 26 | 179 | 9.7 | 16.1 | 0.00 | 0.00 | 0.00 | 15 | 1015.7 |
| 20260903003215 | 26 | 203 | 12.9 | 20.9 | 0.00 | 0.00 | 0.00 | 15 | 1015.4 |
| 20260903002255 | 26 | 202 | 19.3 | 29.0 | 0.00 | 0.00 | 0.00 | 15 | 1015.4 |
| 20260903001215 | 26 | 190 | 17.7 | 29.0 | 0.00 | 0.00 | 0.00 | 14 | 1015.5 |
| 20260903000215 | 27 | 211 | 19.3 | 37.0 | 0.00 | 0.00 | 0.00 | 13 | 1015.5 |
| 20260902235215 | 27 | 222 | 19.3 | 35.4 | 0.00 | 0.00 | 0.00 | 14 | 1015.7 |
| 20260902234215 | 27 | 204 | 19.3 | 41.8 | 0.00 | 0.00 | 0.00 | 15 | 1015.9 |
| 20260902233215 | 27 | 208 | 17.7 | 29.0 | 0.00 | 0.00 | 0.00 | 15 | 1016.0 |
| 20260902232217 | 26 | 199 | 16.1 | 24.1 | 0.00 | 0.00 | 0.00 | 18 | 1016.2 |
| 20260902231217 | 26 | 194 | 22.5 | 32.2 | 0.00 | 0.00 | 0.00 | 16 | 1016.2 |
| 20260902230217 | 26 | 199 | 12.9 | 24.1 | 0.00 | 0.00 | 0.00 | 16 | 1016.3 |
| 20260902225217 | 27 | 233 | 25.7 | 32.2 | 0.00 | 0.00 | 0.00 | 15 | 1016.5 |
| 20260902224217 | 26 | 177 | 12.9 | 20.9 | 0.00 | 0.00 | 0.00 | 19 | 1016.4 |
| 20260902223237 | 27 | 188 | 16.1 | 29.0 | 0.00 | 0.00 | 0.00 | 18 | 1016.3 |
| 20260902222237 | 27 | 217 | 17.7 | 27.4 | 0.00 | 0.00 | 0.00 | 17 | 1016.6 |
| 20260902221217 | 27 | 210 | 19.3 | 32.2 | 0.00 | 0.00 | 0.00 | 18 | 1016.6 |
| 20260902220217 | 27 | 212 | 17.7 | 30.6 | 0.00 | 0.00 | 0.00 | 18 | 1016.6 |
| 20260902215217 | 26 | 187 | 19.3 | 35.4 | 0.00 | 0.00 | 0.00 | 20 | 1016.5 |
| 20260902214216 | 26 | 224 | 20.9 | 33.8 | 0.00 | 0.00 | 0.00 | 20 | 1016.7 |
| 20260902213217 | 26 | 232 | 30.6 | 40.2 | 0.00 | 0.00 | 0.00 | 21 | 1016.6 |
| 20260902212216 | 26 | 224 | 17.7 | 27.4 | 0.00 | 0.00 | 0.00 | 21 | 1016.7 |